Time,TemperatureF,DewpointF,PressureIn,WindDirection,WindDirectionDegrees,WindSpeedMPH,WindSpeedGustMPH,Humidity,HourlyPrecipIn,Conditions,Clouds,dailyrainin,SoftwareType,DateUTC
2013-01-16 00:02:00,31.0,23.0,30.29,SSE,147,0.0,3.0,72,0.00,,,0.04,,2013-01-16 06:02:00,
2013-01-16 00:12:00,31.0,23.0,30.29,SSE,147,0.0,3.0,72,0.00,,,0.04,,2013-01-16 06:12:00,
2013-01-16 00:22:00,31.0,23.0,30.30,WNW,296,0.0,5.0,72,0.00,,,0.04,,2013-01-16 06:22:00,
2013-01-16 00:32:00,30.0,22.0,30.30,West,281,0.0,4.0,72,0.00,,,0.04,,2013-01-16 06:32:00,
2013-01-16 00:43:00,30.0,22.0,30.30,West,281,0.0,4.0,72,0.00,,,0.04,,2013-01-16 06:43:00,
2013-01-16 00:52:00,30.0,22.0,30.30,WNW,300,0.0,2.0,72,0.00,,,0.04,,2013-01-16 06:52:00,
2013-01-16 01:02:00,30.0,23.0,30.29,WNW,295,0.0,2.0,74,0.00,,,0.04,,2013-01-16 07:02:00,
2013-01-16 01:12:00,30.0,23.0,30.29,WNW,295,0.0,2.0,74,0.00,,,0.04,,2013-01-16 07:12:00,
2013-01-16 01:22:00,30.0,23.0,30.29,WNW,303,0.0,3.0,74,0.00,,,0.04,,2013-01-16 07:22:00,
2013-01-16 01:32:00,29.0,22.0,30.30,WNW,298,0.0,2.0,74,0.00,,,0.04,,2013-01-16 07:32:00,
2013-01-16 01:42:00,29.0,22.0,30.30,WNW,298,0.0,2.0,74,0.00,,,0.04,,2013-01-16 07:42:00,
2013-01-16 01:52:00,28.0,22.0,30.30,WNW,298,0.0,0.0,77,0.00,,,0.04,,2013-01-16 07:52:00,
2013-01-16 02:02:00,27.0,22.0,30.32,WNW,298,0.0,0.0,81,0.00,,,0.04,,2013-01-16 08:02:00,
2013-01-16 02:12:00,27.0,22.0,30.32,WNW,298,0.0,0.0,81,0.00,,,0.04,,2013-01-16 08:12:00,
2013-01-16 02:22:00,27.0,23.0,30.33,WNW,298,0.0,0.0,83,0.00,,,0.04,,2013-01-16 08:22:00,
2013-01-16 02:32:00,27.0,23.0,30.32,WNW,298,0.0,0.0,84,0.00,,,0.04,,2013-01-16 08:32:00,
2013-01-16 02:42:00,27.0,23.0,30.32,WNW,298,0.0,0.0,84,0.00,,,0.04,,2013-01-16 08:42:00,
2013-01-16 02:52:00,28.0,24.0,30.32,WNW,298,0.0,0.0,85,0.00,,,0.04,,2013-01-16 08:52:00,
2013-01-16 03:02:00,28.0,23.0,30.32,WNW,298,0.0,0.0,82,0.00,,,0.04,,2013-01-16 09:02:00,
2013-01-16 03:12:00,28.0,23.0,30.32,WNW,298,0.0,0.0,82,0.00,,,0.04,,2013-01-16 09:12:00,
2013-01-16 03:22:00,29.0,23.0,30.32,West,270,0.0,0.0,79,0.00,,,0.04,,2013-01-16 09:22:00,
2013-01-16 03:32:00,29.0,23.0,30.33,West,270,0.0,1.0,77,0.00,,,0.04,,2013-01-16 09:32:00,
2013-01-16 03:42:00,29.0,23.0,30.33,West,270,0.0,1.0,77,0.00,,,0.04,,2013-01-16 09:42:00,
2013-01-16 03:52:00,29.0,23.0,30.32,WNW,300,0.0,2.0,77,0.00,,,0.04,,2013-01-16 09:52:00,
2013-01-16 04:02:00,29.0,23.0,30.33,WNW,293,0.0,2.0,77,0.00,,,0.04,,2013-01-16 10:02:00,
2013-01-16 04:12:00,29.0,23.0,30.33,WNW,293,0.0,2.0,77,0.00,,,0.04,,2013-01-16 10:12:00,
2013-01-16 04:22:00,29.0,23.0,30.33,South,188,0.0,2.0,78,0.00,,,0.04,,2013-01-16 10:22:00,
2013-01-16 04:32:00,29.0,23.0,30.32,West,266,0.0,1.0,79,0.00,,,0.04,,2013-01-16 10:32:00,
2013-01-16 04:42:00,29.0,23.0,30.32,West,266,0.0,1.0,79,0.00,,,0.04,,2013-01-16 10:42:00,
2013-01-16 04:52:00,28.0,22.0,30.32,SSW,207,0.0,1.0,79,0.00,,,0.04,,2013-01-16 10:52:00,
2013-01-16 05:02:00,28.0,23.0,30.33,SW,225,0.0,1.0,80,0.00,,,0.04,,2013-01-16 11:02:00,
2013-01-16 05:12:00,28.0,23.0,30.33,SW,225,0.0,1.0,80,0.00,,,0.04,,2013-01-16 11:12:00,
2013-01-16 05:22:00,27.0,22.0,30.33,SW,225,0.0,0.0,81,0.00,,,0.04,,2013-01-16 11:22:00,
2013-01-16 05:32:00,26.0,22.0,30.34,SW,225,0.0,0.0,84,0.00,,,0.04,,2013-01-16 11:32:00,
2013-01-16 05:42:00,26.0,22.0,30.34,SW,225,0.0,0.0,84,0.00,,,0.04,,2013-01-16 11:42:00,
2013-01-16 05:52:00,25.0,22.0,30.33,SW,225,0.0,0.0,87,0.00,,,0.04,,2013-01-16 11:52:00,
2013-01-16 06:03:00,25.0,22.0,30.33,SW,225,0.0,0.0,88,0.00,,,0.04,,2013-01-16 12:03:00,
2013-01-16 06:13:00,25.0,22.0,30.33,SW,225,0.0,0.0,88,0.00,,,0.04,,2013-01-16 12:13:00,
2013-01-16 06:22:00,24.0,21.0,30.34,SW,225,0.0,0.0,89,0.00,,,0.04,,2013-01-16 12:22:00,
2013-01-16 06:33:00,24.0,22.0,30.34,SW,225,0.0,0.0,90,0.00,,,0.04,,2013-01-16 12:33:00,
2013-01-16 06:43:00,24.0,22.0,30.34,SW,225,0.0,0.0,90,0.00,,,0.04,,2013-01-16 12:43:00,
2013-01-16 06:53:00,23.0,21.0,30.34,SW,225,0.0,0.0,90,0.00,,,0.04,,2013-01-16 12:53:00,
2013-01-16 07:03:00,23.0,21.0,30.35,SW,225,0.0,0.0,91,0.00,,,0.04,,2013-01-16 13:03:00,
2013-01-16 07:12:00,23.0,21.0,30.35,SW,225,0.0,0.0,91,0.00,,,0.04,,2013-01-16 13:12:00,
2013-01-16 07:22:00,23.0,21.0,30.35,SW,225,0.0,0.0,91,0.00,,,0.04,,2013-01-16 13:22:00,
2013-01-16 07:33:00,23.0,21.0,30.35,SW,225,0.0,0.0,92,0.00,,,0.04,,2013-01-16 13:33:00,
2013-01-16 07:43:00,23.0,21.0,30.35,SW,225,0.0,0.0,92,0.00,,,0.04,,2013-01-16 13:43:00,
2013-01-16 07:52:00,23.0,21.0,30.35,SW,225,0.0,0.0,92,0.00,,,0.04,,2013-01-16 13:52:00,
2013-01-16 08:03:00,23.0,21.0,30.36,SW,225,0.0,0.0,92,0.00,,,0.04,,2013-01-16 14:03:00,
2013-01-16 08:12:00,23.0,21.0,30.36,SW,225,0.0,0.0,92,0.00,,,0.04,,2013-01-16 14:12:00,
2013-01-16 08:22:00,23.0,21.0,30.37,SW,225,0.0,0.0,90,0.00,,,0.04,,2013-01-16 14:22:00,
2013-01-16 08:33:00,25.0,22.0,30.37,SW,225,0.0,0.0,87,0.00,,,0.04,,2013-01-16 14:33:00,
2013-01-16 08:43:00,25.0,22.0,30.37,SW,225,0.0,0.0,87,0.00,,,0.04,,2013-01-16 14:43:00,
2013-01-16 08:53:00,27.0,22.0,30.38,WSW,250,0.0,1.0,81,0.00,,,0.04,,2013-01-16 14:53:00,
2013-01-16 09:03:00,28.0,22.0,30.38,SW,219,0.0,5.0,77,0.00,,,0.04,,2013-01-16 15:03:00,
2013-01-16 09:12:00,28.0,22.0,30.38,SW,219,0.0,5.0,77,0.00,,,0.04,,2013-01-16 15:12:00,
2013-01-16 09:22:00,29.0,22.0,30.39,WSW,257,0.0,1.0,74,0.00,,,0.04,,2013-01-16 15:22:00,
2013-01-16 09:33:00,30.0,22.0,30.39,SW,218,0.0,1.0,72,0.00,,,0.04,,2013-01-16 15:33:00,
2013-01-16 09:43:00,30.0,22.0,30.39,SW,218,0.0,1.0,72,0.00,,,0.04,,2013-01-16 15:43:00,
2013-01-16 09:52:00,32.0,22.0,30.39,SSW,208,0.0,1.0,67,0.00,,,0.04,,2013-01-16 15:52:00,
2013-01-16 10:03:00,33.0,21.0,30.39,SSW,211,0.0,1.0,62,0.00,,,0.04,,2013-01-16 16:03:00,
2013-01-16 10:12:00,33.0,21.0,30.39,SSW,211,0.0,1.0,62,0.00,,,0.04,,2013-01-16 16:12:00,
2013-01-16 10:22:00,34.0,21.0,30.38,West,262,0.0,1.0,58,0.00,,,0.04,,2013-01-16 16:22:00,
2013-01-16 10:33:00,36.0,21.0,30.37,SSW,201,0.0,2.0,54,0.00,,,0.04,,2013-01-16 16:33:00,
2013-01-16 10:42:00,36.0,21.0,30.37,SSW,201,0.0,2.0,54,0.00,,,0.04,,2013-01-16 16:42:00,
2013-01-16 10:52:00,37.0,20.0,30.37,SW,228,0.0,2.0,50,0.00,,,0.04,,2013-01-16 16:52:00,
2013-01-16 11:03:00,38.0,20.0,30.36,SW,229,0.0,2.0,47,0.00,,,0.04,,2013-01-16 17:03:00,
2013-01-16 11:12:00,38.0,20.0,30.36,SW,229,0.0,2.0,47,0.00,,,0.04,,2013-01-16 17:12:00,
2013-01-16 11:22:00,39.0,20.0,30.36,WNW,291,0.0,2.0,46,0.00,,,0.04,,2013-01-16 17:22:00,
2013-01-16 11:33:00,40.0,20.0,30.35,NNW,342,0.0,4.0,44,0.00,,,0.04,,2013-01-16 17:33:00,
2013-01-16 11:43:00,40.0,20.0,30.35,NNW,342,0.0,4.0,44,0.00,,,0.04,,2013-01-16 17:43:00,
2013-01-16 11:53:00,41.0,20.0,30.35,SW,219,0.0,7.0,43,0.00,,,0.04,,2013-01-16 17:53:00,
2013-01-16 12:03:00,42.0,21.0,30.33,WNW,291,1.0,6.0,43,0.00,,,0.04,,2013-01-16 18:03:00,
2013-01-16 12:13:00,42.0,22.0,30.33,WNW,297,0.0,2.0,44,0.00,,,0.04,,2013-01-16 18:13:00,
2013-01-16 12:23:00,42.0,22.0,30.33,WNW,297,0.0,2.0,44,0.00,,,0.04,,2013-01-16 18:23:00,
2013-01-16 12:33:00,43.0,23.0,30.32,West,277,1.0,10.0,44,0.00,,,0.04,,2013-01-16 18:33:00,
2013-01-16 12:42:00,43.0,23.0,30.32,West,277,1.0,10.0,44,0.00,,,0.04,,2013-01-16 18:42:00,
2013-01-16 12:53:00,44.0,22.0,30.30,SSW,211,0.0,2.0,42,0.00,,,0.04,,2013-01-16 18:53:00,
2013-01-16 13:03:00,44.0,22.0,30.30,NW,316,1.0,3.0,41,0.00,,,0.04,,2013-01-16 19:03:00,
2013-01-16 13:12:00,44.0,22.0,30.30,NW,316,1.0,3.0,41,0.00,,,0.04,,2013-01-16 19:12:00,
2013-01-16 13:23:00,44.0,22.0,30.30,WSW,248,0.0,3.0,42,0.00,,,0.04,,2013-01-16 19:23:00,
2013-01-16 13:33:00,45.0,24.0,30.29,West,279,0.0,3.0,43,0.00,,,0.04,,2013-01-16 19:33:00,
2013-01-16 13:43:00,45.0,24.0,30.29,West,279,0.0,3.0,43,0.00,,,0.04,,2013-01-16 19:43:00,
2013-01-16 13:52:00,46.0,25.0,30.28,SW,226,0.0,5.0,43,0.00,,,0.04,,2013-01-16 19:52:00,
2013-01-16 14:03:00,46.0,25.0,30.28,SSW,203,0.0,5.0,43,0.00,,,0.04,,2013-01-16 20:03:00,
2013-01-16 14:12:00,46.0,25.0,30.28,SSW,203,0.0,5.0,43,0.00,,,0.04,,2013-01-16 20:12:00,
2013-01-16 14:23:00,46.0,25.0,30.27,SW,221,0.0,6.0,43,0.00,,,0.04,,2013-01-16 20:23:00,
2013-01-16 14:33:00,46.0,24.0,30.27,WSW,256,0.0,4.0,42,0.00,,,0.02,,2013-01-16 20:33:00,
2013-01-16 14:42:00,46.0,24.0,30.27,WSW,256,0.0,4.0,42,0.00,,,0.02,,2013-01-16 20:42:00,
2013-01-16 14:53:00,46.0,24.0,30.26,WSW,244,0.0,3.0,42,0.00,,,0.02,,2013-01-16 20:53:00,
2013-01-16 15:03:00,46.0,23.0,30.26,SSW,197,2.0,8.0,40,0.00,,,0.02,,2013-01-16 21:03:00,
2013-01-16 15:12:00,46.0,23.0,30.26,SSW,197,2.0,8.0,40,0.00,,,0.02,,2013-01-16 21:12:00,
2013-01-16 15:22:00,47.0,25.0,30.26,SW,221,0.0,4.0,42,0.00,,,0.02,,2013-01-16 21:22:00,
2013-01-16 15:33:00,47.0,24.0,30.25,West,274,1.0,5.0,40,0.00,,,0.01,,2013-01-16 21:33:00,
2013-01-16 15:43:00,47.0,24.0,30.25,West,274,1.0,5.0,40,0.00,,,0.01,,2013-01-16 21:43:00,
2013-01-16 15:52:00,47.0,24.0,30.25,SW,228,0.0,5.0,40,0.00,,,0.01,,2013-01-16 21:52:00,
2013-01-16 16:02:00,47.0,25.0,30.26,NW,304,0.0,8.0,41,0.00,,,0.01,,2013-01-16 22:02:00,
2013-01-16 16:12:00,47.0,25.0,30.26,NW,304,0.0,8.0,41,0.00,,,0.01,,2013-01-16 22:12:00,
2013-01-16 16:22:00,47.0,25.0,30.26,NW,304,0.0,8.0,41,0.00,,,0.01,,2013-01-16 22:22:00,
2013-01-16 16:33:00,47.0,24.0,30.26,SSW,207,0.0,4.0,40,0.00,,,0.00,,2013-01-16 22:33:00,
2013-01-16 16:43:00,47.0,24.0,30.26,SSW,207,0.0,4.0,40,0.00,,,0.00,,2013-01-16 22:43:00,
2013-01-16 16:53:00,47.0,23.0,30.26,West,262,0.0,4.0,39,0.00,,,0.00,,2013-01-16 22:53:00,
2013-01-16 17:03:00,47.0,24.0,30.26,NNW,330,0.0,4.0,40,0.00,,,0.00,,2013-01-16 23:03:00,
2013-01-16 17:12:00,47.0,24.0,30.26,NW,326,0.0,3.0,40,0.00,,,0.00,,2013-01-16 23:12:00,
2013-01-16 17:22:00,47.0,24.0,30.26,NW,326,0.0,3.0,40,0.00,,,0.00,,2013-01-16 23:22:00,
2013-01-16 17:32:00,47.0,23.0,30.26,SW,233,0.0,2.0,38,0.00,,,0.00,,2013-01-16 23:32:00,
2013-01-16 17:42:00,47.0,23.0,30.26,SW,233,0.0,2.0,38,0.00,,,0.00,,2013-01-16 23:42:00,
2013-01-16 17:52:00,46.0,22.0,30.26,WSW,243,0.0,3.0,39,0.00,,,0.00,,2013-01-16 23:52:00,
2013-01-16 18:02:00,44.0,23.0,30.27,WSW,246,0.0,1.0,43,0.00,,,0.00,,2013-01-17 00:02:00,
2013-01-16 18:12:00,44.0,23.0,30.27,WSW,246,0.0,1.0,43,0.00,,,0.00,,2013-01-17 00:12:00,
2013-01-16 18:22:00,42.0,24.0,30.27,WSW,246,0.0,0.0,48,0.00,,,0.00,,2013-01-17 00:22:00,
2013-01-16 18:32:00,39.0,24.0,30.27,WSW,245,0.0,0.0,55,0.00,,,0.00,,2013-01-17 00:32:00,
2013-01-16 18:42:00,39.0,24.0,30.27,WSW,245,0.0,0.0,55,0.00,,,0.00,,2013-01-17 00:42:00,
2013-01-16 18:52:00,37.0,24.0,30.27,WSW,246,0.0,0.0,59,0.00,,,0.00,,2013-01-17 00:52:00,
2013-01-16 19:02:00,35.0,24.0,30.27,WSW,246,0.0,0.0,65,0.00,,,0.00,,2013-01-17 01:02:00,
2013-01-16 19:12:00,35.0,24.0,30.27,WSW,246,0.0,0.0,65,0.00,,,0.00,,2013-01-17 01:12:00,
2013-01-16 19:22:00,34.0,25.0,30.28,WSW,246,0.0,0.0,68,0.00,,,0.00,,2013-01-17 01:22:00,
2013-01-16 19:33:00,33.0,25.0,30.29,WSW,246,0.0,0.0,72,0.00,,,0.00,,2013-01-17 01:33:00,
2013-01-16 19:42:00,33.0,25.0,30.29,WSW,246,0.0,0.0,72,0.00,,,0.00,,2013-01-17 01:42:00,
2013-01-16 19:52:00,32.0,24.0,30.29,WSW,246,0.0,0.0,73,0.00,,,0.00,,2013-01-17 01:52:00,
2013-01-16 20:02:00,31.0,25.0,30.29,WSW,246,0.0,0.0,78,0.00,,,0.00,,2013-01-17 02:02:00,
2013-01-16 20:12:00,31.0,25.0,30.29,WSW,246,0.0,0.0,78,0.00,,,0.00,,2013-01-17 02:12:00,
2013-01-16 20:22:00,31.0,25.0,30.29,WSW,245,0.0,0.0,79,0.00,,,0.00,,2013-01-17 02:22:00,
2013-01-16 20:32:00,30.0,25.0,30.30,WSW,245,0.0,0.0,81,0.00,,,0.00,,2013-01-17 02:32:00,
2013-01-16 20:42:00,30.0,25.0,30.30,WSW,245,0.0,0.0,81,0.00,,,0.00,,2013-01-17 02:42:00,
2013-01-16 20:52:00,30.0,25.0,30.30,WSW,245,0.0,0.0,81,0.00,,,0.00,,2013-01-17 02:52:00,
2013-01-16 21:03:00,29.0,25.0,30.31,WSW,245,0.0,0.0,84,0.00,,,0.00,,2013-01-17 03:03:00,
2013-01-16 21:12:00,29.0,25.0,30.31,WSW,245,0.0,0.0,84,0.00,,,0.00,,2013-01-17 03:12:00,
2013-01-16 21:22:00,29.0,25.0,30.31,WSW,245,0.0,0.0,86,0.00,,,0.00,,2013-01-17 03:22:00,
2013-01-16 21:32:00,29.0,26.0,30.31,WSW,245,0.0,0.0,87,0.00,,,0.00,,2013-01-17 03:32:00,
2013-01-16 21:42:00,29.0,26.0,30.31,WSW,245,0.0,0.0,87,0.00,,,0.00,,2013-01-17 03:42:00,
2013-01-16 21:52:00,28.0,24.0,30.31,WSW,246,0.0,0.0,86,0.00,,,0.00,,2013-01-17 03:52:00,
2013-01-16 22:02:00,29.0,26.0,30.32,WSW,245,0.0,0.0,88,0.00,,,0.00,,2013-01-17 04:02:00,
2013-01-16 22:12:00,29.0,26.0,30.32,WSW,246,0.0,0.0,89,0.00,,,0.00,,2013-01-17 04:12:00,
2013-01-16 22:22:00,29.0,26.0,30.32,WSW,246,0.0,0.0,89,0.00,,,0.00,,2013-01-17 04:22:00,
2013-01-16 22:32:00,30.0,27.0,30.32,WSW,245,0.0,0.0,90,0.00,,,0.00,,2013-01-17 04:32:00,
2013-01-16 22:42:00,30.0,27.0,30.32,WSW,245,0.0,0.0,90,0.00,,,0.00,,2013-01-17 04:42:00,
2013-01-16 22:52:00,31.0,28.0,30.31,WSW,245,0.0,0.0,89,0.00,,,0.00,,2013-01-17 04:52:00,
2013-01-16 23:04:00,31.0,28.0,30.31,WSW,246,0.0,0.0,88,0.00,,,0.00,,2013-01-17 05:04:00,
2013-01-16 23:12:00,31.0,28.0,30.31,WSW,246,0.0,0.0,88,0.00,,,0.00,,2013-01-17 05:12:00,
2013-01-16 23:22:00,31.0,28.0,30.32,WSW,246,0.0,0.0,88,0.00,,,0.00,,2013-01-17 05:22:00,
2013-01-16 23:33:00,32.0,29.0,30.32,WSW,246,0.0,0.0,88,0.00,,,0.00,,2013-01-17 05:33:00,
2013-01-16 23:42:00,32.0,29.0,30.32,WSW,246,0.0,0.0,88,0.00,,,0.00,,2013-01-17 05:42:00,
2013-01-16 23:52:00,33.0,30.0,30.32,WSW,245,0.0,0.0,87,0.00,,,0.00,,2013-01-17 05:52:00,